Simultaneous Nadir Overpasses (SNOs) Predictions

Prediction of SNOs between GOES-14 and AQUA Satellite Orbit:

Table of predicted SNOs for the next 14.0 days since TLE Epoch: 11/7/2020
Index Date Time (GOES-14) GOES-14 Lat,Lon AQUA Lat,Lon Distance(km) Time Diff (sec)
1 11/07/2020 20:20:27 -0.09,-104.22 0.63,-101.01 366.09 80
2 11/08/2020 08:41:43 0.06,-104.38 0.47,-106.17 204.01 80
3 11/10/2020 08:26:52 0.06,-104.37 -0.20,-103.22 131.18 80
4 11/10/2020 20:48:15 -0.04,-104.19 -0.94,-108.40 479.15 80
5 11/12/2020 08:14:40 0.07,-104.36 -0.81,-100.26 466.59 80
6 11/12/2020 20:36:03 -0.04,-104.19 -0.33,-105.44 143.15 80
7 11/14/2020 20:26:31 -0.05,-104.18 0.29,-102.48 192.67 80
8 11/15/2020 08:47:48 0.02,-104.37 0.74,-107.65 373.29 80
9 11/17/2020 08:35:36 0.03,-104.36 0.12,-104.70 38.11 80
10 11/19/2020 08:20:44 0.04,-104.35 -0.52,-101.74 296.99 80
11 11/19/2020 20:42:07 -0.01,-104.14 -0.62,-106.92 316.61 80
